Résultats de la compétition "WRE Longue Distance Annecy Les Puisots 3/10/2010" du 03-10-2010 organisée par le comité départemental du 74 - Haute-Savoie
     
  Télécharger le fichier CSV.  
     
     

 Circuit "Kbis"

Licence Nom Prénom Temps CN
précédent
Score sur
la course
Différence
10396HABERKORNChloé0:28:5038213054-767
9402BORNARDJulie0:29:3019892985+996
16555PICAZOMarie0:30:5729272845-82
11559ROULLEAUXJulie0:31:2339192806-1113
19486BISSIERECamille0:31:3429742789-185
10184BODYMathilde0:34:2028912565-326
10430VALETTEMarion0:34:2118972563+666
13800DELENNECamillia0:35:3324552477+22
10091LUTHRINGERColine0:36:3721022405+303
22451RIVOLLIERIsaline0:37:0302377N/A
17925DROINSolene0:37:1824792361-118
11508LEBIHANBarbara0:37:5028962327-569
23384BASSETFiona0:40:14N/A2188N/A
12609PRATCharline0:42:5415832052+469
13877PIBAROTApolline0:43:25N/A2028N/A
10411LELOUPNathalie0:46:0301912N/A
12045CHAILLARDDana0:48:1717571824+67
11542BONORAMarine0:48:5420641801-263
12403FALGABeatrice0:50:1419441753-191
17418LAFARGEEmeline0:52:2032281682-1546
22216LECOEUCHECharlotte0:56:4101553N/A
20863GENNAROLeslie0:58:1301512N/A
10412LELOUPGaelle0:59:0120121492-520
23427BULLIERAlisson1:00:57N/A1445N/A
9143PORTELouise1:07:5618941296-598
22673KESMEDJIANNinon1:08:15N/A1290N/A
12758DASILVAAuriane1:18:5811421115-27
10486DODIERLucile1:28:16790998+208

  Indice de confiance du circuit (moyenne des différences entre CN et score sur la course des 3 à 10 premiers) : 319






 Retour